,,Stat6,,Stat2,,Stat8,,Stat9,,Stat10,,Wind1,,Wind1,
time,status,PA1M_AVG,status,PR1M_SUM,status,RH1M_AVG,status,SR1M_AVG,status,TA1M_AVG,status,W1dAve1m,status,W1sAve1m,
2004-02-09, 00:00:00,VALID,920.539,VALID,0,VALID,95.9349,VALID,0.0339617,VALID,18.9506,VALID,134,VALID,0.637173,
2004-02-09, 00:01:00,VALID,920.533,VALID,0,VALID,96.4944,VALID,0,VALID,18.9499,VALID,138,VALID,0.306593,
2004-02-09, 00:02:00,VALID,920.523,VALID,0,VALID,96.2465,VALID,0.0509425,VALID,18.9566,VALID,138,VALID,0.414063,
2004-02-09, 00:03:00,VALID,920.508,VALID,0,VALID,96.3215,VALID,0,VALID,18.9474,VALID,138,VALID,0.445117,
2004-02-09, 00:04:00,VALID,920.503,VALID,0,VALID,96.5326,VALID,0,VALID,18.9469,VALID,138,VALID,0.378348,
2004-02-09, 00:05:00,VALID,920.479,VALID,0,VALID,96.4817,VALID,0.0169808,VALID,18.9732,VALID,138,VALID,0.340199,
2004-02-09, 00:06:00,VALID,920.47,VALID,0,VALID,96.2541,VALID,0,VALID,18.9568,VALID,138,VALID,0.381324,
2004-02-09, 00:07:00,VALID,920.441,VALID,0,VALID,96.0913,VALID,0.0509425,VALID,18.9213,VALID,136,VALID,0.453835,
2004-02-09, 00:08:00,VALID,920.434,VALID,0,VALID,95.6107,VALID,0.0169808,VALID,18.8307,VALID,125,VALID,0.687682,
2004-02-09, 00:09:00,VALID,920.42,VALID,0,VALID,96.7958,VALID,0.0169808,VALID,18.8053,VALID,116,VALID,0.694404,
2004-02-09, 00:10:00,VALID,920.403,VALID,0,VALID,97.5956,VALID,0.0169808,VALID,18.857,VALID,106,VALID,0.770597,
2004-02-09, 00:11:00,VALID,920.399,VALID,0,VALID,97.8118,VALID,0,VALID,18.9345,VALID,104,VALID,0.829427,
2004-02-09, 00:12:00,VALID,920.405,VALID,0,VALID,97.5384,VALID,0,VALID,19.0025,VALID,97,VALID,0.769965,
2004-02-09, 00:13:00,VALID,920.391,VALID,0,VALID,96.7729,VALID,0.0339617,VALID,19.0187,VALID,90,VALID,0.674716,
2004-02-09, 00:14:00,VALID,920.387,VALID,0,VALID,96.1956,VALID,0.0509425,VALID,18.9735,VALID,78,VALID,0.64226,
2004-02-09, 00:15:00,VALID,920.368,VALID,0,VALID,96.455,VALID,0.0509425,VALID,18.9737,VALID,81,VALID,0.621528,
2004-02-09, 00:16:00,VALID,920.347,VALID,0,VALID,96.5707,VALID,0,VALID,19.0191,VALID,99,VALID,0.581395,
2004-02-09, 00:17:00,VALID,920.331,VALID,0,VALID,96.2655,VALID,0.0169808,VALID,19.0676,VALID,101,VALID,0.405849,
2004-02-09, 00:18:00,VALID,920.316,VALID,0,VALID,95.6997,VALID,0,VALID,19.0606,VALID,101,VALID,0.381359,
2004-02-09, 00:19:00,VALID,920.307,VALID,0,VALID,95.7633,VALID,0.0339617,VALID,19.051,VALID,103,VALID,0.57641,
2004-02-09, 00:20:00,VALID,920.313,VALID,0,VALID,95.8345,VALID,0.0339617,VALID,19.0584,VALID,116,VALID,0.673971,
2004-02-09, 00:21:00,VALID,920.3,VALID,0,VALID,95.6259,VALID,0,VALID,19.0484,VALID,123,VALID,1.07522,
2004-02-09, 00:22:00,VALID,920.289,VALID,0,VALID,95.6552,VALID,0.0169808,VALID,19.0348,VALID,121,VALID,1.08085,
2004-02-09, 00:23:00,VALID,920.268,VALID,0,VALID,95.1097,VALID,0.0339617,VALID,19.0097,VALID,132,VALID,1.02396,
2004-02-09, 00:24:00,VALID,920.268,VALID,0,VALID,95.1885,VALID,0,VALID,18.9576,VALID,131,VALID,1.10229,
2004-02-09, 00:25:00,VALID,920.265,VALID,0,VALID,95.3373,VALID,0.0509425,VALID,18.9248,VALID,124,VALID,1.07688,
2004-02-09, 00:26:00,VALID,920.26,VALID,0,VALID,95.3958,VALID,0.0169808,VALID,18.9287,VALID,122,VALID,1.19895,
2004-02-09, 00:27:00,VALID,920.239,VALID,0,VALID,95.5598,VALID,0.0169808,VALID,18.9253,VALID,117,VALID,0.988735,
2004-02-09, 00:28:00,VALID,920.241,VALID,0,VALID,95.8218,VALID,0.0169808,VALID,18.9126,VALID,121,VALID,1.10813,
2004-02-09, 00:29:00,VALID,920.238,VALID,0,VALID,96.1638,VALID,-0.0849042,VALID,18.8914,VALID,124,VALID,1.20004,
2004-02-09, 00:30:00,VALID,920.225,VALID,0,VALID,96.2897,VALID,-0.101885,VALID,18.8487,VALID,118,VALID,1.03795,
2004-02-09, 00:31:00,VALID,920.217,VALID,0,VALID,96.3622,VALID,-0.0679233,VALID,18.8169,VALID,126,VALID,0.975632,
2004-02-09, 00:32:00,VALID,920.203,VALID,0,VALID,96.5288,VALID,-0.101885,VALID,18.7715,VALID,113,VALID,0.922075,
2004-02-09, 00:33:00,VALID,920.174,VALID,0,VALID,96.8785,VALID,-0.0849042,VALID,18.7427,VALID,117,VALID,0.970052,
2004-02-09, 00:34:00,VALID,920.169,VALID,0,VALID,97.0463,VALID,-0.0849042,VALID,18.7364,VALID,117,VALID,1.03354,
2004-02-09, 00:35:00,VALID,920.138,VALID,0,VALID,97.3095,VALID,-0.0679233,VALID,18.733,VALID,126,VALID,1.54479,
2004-02-09, 00:36:00,VALID,920.14,VALID,0,VALID,97.0044,VALID,-0.101885,VALID,18.7757,VALID,135,VALID,1.30396,
2004-02-09, 00:37:00,VALID,920.104,VALID,0,VALID,97.321,VALID,-0.0849042,VALID,18.8495,VALID,140,VALID,1.94055,
2004-02-09, 00:38:00,VALID,920.093,VALID,0,VALID,96.9433,VALID,-0.101885,VALID,18.9399,VALID,146,VALID,1.76258,
2004-02-09, 00:39:00,VALID,920.075,VALID,0,VALID,96.4347,VALID,-0.0849042,VALID,19.0012,VALID,136,VALID,1.67245,
2004-02-09, 00:40:00,VALID,920.069,VALID,0,VALID,95.9794,VALID,-0.0509425,VALID,19.0626,VALID,127,VALID,1.40149,
2004-02-09, 00:41:00,VALID,920.074,VALID,0,VALID,95.3831,VALID,-0.0849042,VALID,19.0531,VALID,113,VALID,1.17097,
2004-02-09, 00:42:00,VALID,920.066,VALID,0,VALID,95.5242,VALID,-0.101885,VALID,19.0402,VALID,109,VALID,0.829883,
2004-02-09, 00:43:00,VALID,920.052,VALID,0,VALID,95.6208,VALID,-0.0849042,VALID,19.0337,VALID,99,VALID,0.653706,
2004-02-09, 00:44:00,VALID,920.036,VALID,0,VALID,95.5954,VALID,0.0169808,VALID,19.0187,VALID,113,VALID,0.93407,
2004-02-09, 00:45:00,VALID,920.019,VALID,0,VALID,95.7607,VALID,0.0339617,VALID,19.0256,VALID,109,VALID,1.00521,
2004-02-09, 00:46:00,VALID,920.015,VALID,0,VALID,95.7353,VALID,0.0339617,VALID,19.0191,VALID,125,VALID,1.12137,
2004-02-09, 00:47:00,VALID,920.01,VALID,0,VALID,95.5026,VALID,0.0169808,VALID,19.009,VALID,118,VALID,0.892624,
2004-02-09, 00:48:00,VALID,920.039,VALID,0,VALID,95.4021,VALID,0,VALID,18.9797,VALID,113,VALID,0.864453,
2004-02-09, 00:49:00,VALID,920.041,VALID,0,VALID,95.7785,VALID,0.0169808,VALID,19,VALID,122,VALID,1.14684,
2004-02-09, 00:50:00,VALID,920.052,VALID,0,VALID,95.467,VALID,0.0169808,VALID,19.0058,VALID,123,VALID,1.03869,
2004-02-09, 00:51:00,VALID,920.029,VALID,0,VALID,95.5026,VALID,0.0169808,VALID,19.0085,VALID,129,VALID,1.07631,
2004-02-09, 00:52:00,VALID,919.998,VALID,0,VALID,95.631,VALID,0,VALID,19.0455,VALID,132,VALID,1.64426,
2004-02-09, 00:53:00,VALID,919.968,VALID,0,VALID,95.3665,VALID,0,VALID,19.0512,VALID,127,VALID,1.40075,
2004-02-09, 00:54:00,VALID,919.949,VALID,0,VALID,95.2368,VALID,0.0169808,VALID,19.074,VALID,125,VALID,1.35902,
2004-02-09, 00:55:00,VALID,919.922,VALID,0,VALID,95.0079,VALID,0,VALID,19.0611,VALID,126,VALID,1.13653,
2004-02-09, 00:56:00,VALID,919.905,VALID,0,VALID,95.2699,VALID,0.0169808,VALID,19.0579,VALID,120,VALID,1.38172,
2004-02-09, 00:57:00,VALID,919.903,VALID,0,VALID,94.9393,VALID,0,VALID,19.0581,VALID,109,VALID,1.33327,
2004-02-09, 00:58:00,VALID,919.899,VALID,0,VALID,95.0931,VALID,0,VALID,19.0191,VALID,114,VALID,1.12928,
2004-02-09, 00:59:00,VALID,919.881,VALID,0,VALID,95.2928,VALID,-0.0169808,VALID,19.0224,VALID,120,VALID,1.46128,
2004-02-09, 01:00:00,VALID,919.869,VALID,0,VALID,94.9749,VALID,0,VALID,19.0291,VALID,111,VALID,1.07102,
2004-02-09, 01:01:00,VALID,919.857,VALID,0,VALID,94.8757,VALID,0,VALID,18.9899,VALID,101,VALID,1.10709,
2004-02-09, 01:02:00,VALID,919.834,VALID,0,VALID,95.0499,VALID,0,VALID,18.9606,VALID,91,VALID,0.926314,
2004-02-09, 01:03:00,VALID,919.812,VALID,0,VALID,95.2521,VALID,-0.0339617,VALID,18.9645,VALID,112,VALID,1.12705,
2004-02-09, 01:04:00,VALID,919.794,VALID,0,VALID,95.4085,VALID,0,VALID,18.9705,VALID,121,VALID,1.49033,
2004-02-09, 01:05:00,VALID,919.789,VALID,0,VALID,94.9316,VALID,0.0509425,VALID,18.9896,VALID,113,VALID,1.26136,
2004-02-09, 01:06:00,VALID,919.785,VALID,0,VALID,94.8019,VALID,0,VALID,19,VALID,97,VALID,1.16466,
2004-02-09, 01:07:00,VALID,919.769,VALID,0,VALID,94.8833,VALID,0,VALID,19.003,VALID,116,VALID,1.08426,
2004-02-09, 01:08:00,VALID,919.742,VALID,0,VALID,94.8731,VALID,0.0169808,VALID,19.006,VALID,123,VALID,1.18502,
2004-02-09, 01:09:00,VALID,919.714,VALID,0,VALID,94.9049,VALID,0,VALID,19.0159,VALID,132,VALID,1.19169,
2004-02-09, 01:10:00,VALID,919.684,VALID,0,VALID,94.7384,VALID,0,VALID,19.0355,VALID,130,VALID,1.5202,
2004-02-09, 01:11:00,VALID,919.654,VALID,0,VALID,94.4751,VALID,0,VALID,19.0388,VALID,123,VALID,1.43694,
2004-02-09, 01:12:00,VALID,919.647,VALID,0,VALID,94.4408,VALID,0.0169808,VALID,19.0321,VALID,123,VALID,1.44178,
2004-02-09, 01:13:00,VALID,919.614,VALID,0,VALID,93.8686,VALID,0,VALID,19.0676,VALID,119,VALID,1.38175,
2004-02-09, 01:14:00,VALID,919.595,VALID,0,VALID,93.4083,VALID,-0.0169808,VALID,19.1033,VALID,128,VALID,0.929688,
2004-02-09, 01:15:00,VALID,919.573,VALID,0,VALID,93.1311,VALID,0,VALID,19.1319,VALID,129,VALID,1.02402,
2004-02-09, 01:16:00,VALID,919.544,VALID,0,VALID,93.1082,VALID,-0.0169808,VALID,19.1781,VALID,121,VALID,1.10232,
2004-02-09, 01:17:00,VALID,919.53,VALID,0,VALID,92.8195,VALID,0.0169808,VALID,19.1937,VALID,118,VALID,1.04941,
2004-02-09, 01:18:00,VALID,919.503,VALID,0,VALID,92.8424,VALID,0,VALID,19.1937,VALID,124,VALID,1.11285,
2004-02-09, 01:19:00,VALID,919.486,VALID,0,VALID,92.6707,VALID,0,VALID,19.1967,VALID,108,VALID,0.896151,
2004-02-09, 01:20:00,VALID,919.478,VALID,0,VALID,92.5893,VALID,0,VALID,19.1771,VALID,103,VALID,1.05371,
2004-02-09, 01:21:00,VALID,919.49,VALID,0,VALID,92.5385,VALID,0,VALID,19.1806,VALID,77,VALID,0.722929,
2004-02-09, 01:22:00,VALID,919.492,VALID,0,VALID,92.5029,VALID,0,VALID,19.1682,VALID,127,VALID,0.886052,
2004-02-09, 01:23:00,VALID,919.497,VALID,0,VALID,92.4724,VALID,-0.0509425,VALID,19.1778,VALID,136,VALID,1.15796,
2004-02-09, 01:24:00,VALID,919.483,VALID,0,VALID,92.2587,VALID,-0.0169808,VALID,19.1841,VALID,131,VALID,0.986192,
2004-02-09, 01:25:00,VALID,919.475,VALID,0,VALID,91.9396,VALID,0,VALID,19.2067,VALID,114,VALID,0.763719,
2004-02-09, 01:26:00,VALID,919.467,VALID,0,VALID,91.7259,VALID,0,VALID,19.1808,VALID,107,VALID,0.819404,
2004-02-09, 01:27:00,VALID,919.454,VALID,0,VALID,92.129,VALID,0,VALID,19.1423,VALID,136,VALID,1.25019,
2004-02-09, 01:28:00,VALID,919.466,VALID,0,VALID,92.4342,VALID,0.0169808,VALID,19.1121,VALID,145,VALID,1.08496,
2004-02-09, 01:29:00,VALID,919.477,VALID,0,VALID,92.7343,VALID,0.0169808,VALID,19.1515,VALID,168,VALID,0.933408,
2004-02-09, 01:30:00,VALID,919.507,VALID,0,VALID,92.6644,VALID,0,VALID,19.1841,VALID,157,VALID,0.681323,
2004-02-09, 01:31:00,VALID,919.535,VALID,0,VALID,92.5448,VALID,0,VALID,19.1937,VALID,163,VALID,0.526389,
2004-02-09, 01:32:00,VALID,919.543,VALID,0,VALID,92.672,VALID,0,VALID,19.1741,VALID,138,VALID,0.666788,
2004-02-09, 01:33:00,VALID,919.558,VALID,0,VALID,92.8411,VALID,-0.0169808,VALID,19.1354,VALID,164,VALID,0.222747,
2004-02-09, 01:34:00,VALID,919.562,VALID,0,VALID,93.0904,VALID,0.0169808,VALID,19.1029,VALID,151,VALID,0.604968,
2004-02-09, 01:35:00,VALID,919.558,VALID,0,VALID,93.5647,VALID,0.0169808,VALID,19.0899,VALID,159,VALID,0.633854,
2004-02-09, 01:36:00,VALID,919.553,VALID,0,VALID,93.2773,VALID,0.0169808,VALID,19.0703,VALID,149,VALID,0.708651,
2004-02-09, 01:37:01,VALID,919.548,VALID,0,VALID,93.0319,VALID,0.0169808,VALID,19.042,VALID,112,VALID,0.556504,
2004-02-09, 01:38:00,VALID,919.539,VALID,0,VALID,92.967,VALID,0.0169808,VALID,19.0095,VALID,126,VALID,0.311773,
2004-02-09, 01:39:00,VALID,919.522,VALID,0,VALID,93.0713,VALID,0,VALID,18.971,VALID,109,VALID,0.447443,
2004-02-09, 01:40:00,VALID,919.509,VALID,0,VALID,93.4502,VALID,0,VALID,18.9218,VALID,125,VALID,0.75657,
2004-02-09, 01:41:00,VALID,919.504,VALID,0,VALID,93.7414,VALID,0,VALID,18.9255,VALID,128,VALID,0.734976,
2004-02-09, 01:42:00,VALID,919.503,VALID,0,VALID,93.8419,VALID,0,VALID,18.9221,VALID,121,VALID,0.498728,
2004-02-09, 01:43:00,VALID,919.513,VALID,0,VALID,93.8075,VALID,0.0169808,VALID,18.9124,VALID,139,VALID,0.928819,
2004-02-09, 01:44:00,VALID,919.523,VALID,0,VALID,93.9156,VALID,-0.0849042,VALID,18.9043,VALID,125,VALID,0.884851,
2004-02-09, 01:45:00,VALID,919.524,VALID,0,VALID,93.9474,VALID,-0.0679233,VALID,18.881,VALID,143,VALID,0.971354,
2004-02-09, 01:46:00,VALID,919.529,VALID,0,VALID,94.1229,VALID,-0.101885,VALID,18.9009,VALID,138,VALID,1.34323,
2004-02-09, 01:47:00,VALID,919.534,VALID,0,VALID,93.8012,VALID,-0.0849042,VALID,18.9048,VALID,97,VALID,0.999628,
2004-02-09, 01:48:00,VALID,919.52,VALID,0,VALID,93.9309,VALID,-0.101885,VALID,18.8917,VALID,120,VALID,1.77271,
2004-02-09, 01:49:00,VALID,919.514,VALID,0,VALID,93.7668,VALID,-0.0849042,VALID,18.9108,VALID,120,VALID,1.71801,
2004-02-09, 01:50:00,VALID,919.492,VALID,0,VALID,93.8915,VALID,-0.101885,VALID,18.8951,VALID,122,VALID,1.34712,
2004-02-09, 01:51:01,VALID,919.473,VALID,0,VALID,93.9296,VALID,-0.101885,VALID,18.888,VALID,110,VALID,1.28475,
2004-02-09, 01:52:01,VALID,919.467,VALID,0,VALID,93.9703,VALID,-0.0509425,VALID,18.882,VALID,119,VALID,1.44062,
2004-02-09, 01:53:01,VALID,919.432,VALID,0,VALID,94.0441,VALID,-0.0679233,VALID,18.8688,VALID,121,VALID,1.7521,
2004-02-09, 01:54:00,VALID,919.424,VALID,0,VALID,93.9156,VALID,-0.101885,VALID,18.8889,VALID,125,VALID,1.80469,
2004-02-09, 01:55:01,VALID,919.412,VALID,0,VALID,93.6219,VALID,-0.101885,VALID,18.9048,VALID,120,VALID,1.86372,
2004-02-09, 01:56:00,VALID,919.414,VALID,0,VALID,93.3459,VALID,-0.118866,VALID,18.9244,VALID,114,VALID,1.95071,
2004-02-09, 01:57:00,VALID,919.425,VALID,0,VALID,93.2913,VALID,-0.101885,VALID,18.9438,VALID,121,VALID,1.93516,
2004-02-09, 01:58:00,VALID,919.426,VALID,0,VALID,93.1832,VALID,-0.101885,VALID,18.9657,VALID,119,VALID,1.78181,
2004-02-09, 01:59:01,VALID,919.424,VALID,0,VALID,93.0675,VALID,0,VALID,19.0035,VALID,136,VALID,1.7113,
2004-02-09, 02:00:00,VALID,919.411,VALID,0,VALID,92.7661,VALID,0,VALID,19.0551,VALID,116,VALID,2.08861,
2004-02-09, 02:01:00,VALID,919.413,VALID,0,VALID,92.4736,VALID,0,VALID,19.0872,VALID,113,VALID,1.97177,
2004-02-09, 02:02:00,VALID,919.398,VALID,0,VALID,92.4482,VALID,0,VALID,19.1197,VALID,108,VALID,2.01445,
2004-02-09, 02:03:01,VALID,919.385,VALID,0,VALID,92.3808,VALID,0,VALID,19.1356,VALID,130,VALID,1.64063,
2004-02-09, 02:04:00,VALID,919.39,VALID,0,VALID,92.3643,VALID,0.0509425,VALID,19.1548,VALID,127,VALID,1.75553,
2004-02-09, 02:05:00,VALID,919.382,VALID,0,VALID,92.2867,VALID,0,VALID,19.1451,VALID,108,VALID,1.4169,
2004-02-09, 02:06:00,VALID,919.371,VALID,0,VALID,92.5245,VALID,0,VALID,19.1287,VALID,128,VALID,1.44457,
2004-02-09, 02:07:00,VALID,919.391,VALID,0,VALID,92.4278,VALID,0.0169808,VALID,19.1354,VALID,108,VALID,1.48082,
2004-02-09, 02:08:00,VALID,919.403,VALID,0,VALID,92.4177,VALID,0,VALID,19.1227,VALID,108,VALID,1.14289,
2004-02-09, 02:09:00,VALID,919.44,VALID,0,VALID,92.5563,VALID,0,VALID,19.1133,VALID,114,VALID,1.2178,
2004-02-09, 02:10:00,VALID,919.464,VALID,0,VALID,92.5448,VALID,0,VALID,19.1163,VALID,124,VALID,1.39375,
2004-02-09, 02:11:01,VALID,919.466,VALID,0,VALID,92.4978,VALID,0.0339617,VALID,19.1227,VALID,109,VALID,1.23344,
2004-02-09, 02:12:00,VALID,919.471,VALID,0,VALID,92.616,VALID,0.0169808,VALID,19.0999,VALID,90,VALID,1.01829,
2004-02-09, 02:13:00,VALID,919.458,VALID,0,VALID,92.8729,VALID,0,VALID,19.0614,VALID,130,VALID,1.33521,
2004-02-09, 02:14:00,VALID,919.429,VALID,0,VALID,93.0751,VALID,0.0339617,VALID,19.0646,VALID,127,VALID,1.97856,
2004-02-09, 02:15:00,VALID,919.414,VALID,0,VALID,92.7101,VALID,0.0509425,VALID,19.0874,VALID,105,VALID,1.28697,
2004-02-09, 02:16:01,VALID,919.41,VALID,0,VALID,92.761,VALID,0,VALID,19.0417,VALID,84,VALID,1.01172,
2004-02-09, 02:17:00,VALID,919.401,VALID,0,VALID,93.2811,VALID,0.0169808,VALID,18.9968,VALID,94,VALID,0.867746,
2004-02-09, 02:18:00,VALID,919.406,VALID,0,VALID,93.4617,VALID,0.0169808,VALID,18.9608,VALID,103,VALID,0.945494,
2004-02-09, 02:19:01,VALID,919.396,VALID,0,VALID,93.6295,VALID,0,VALID,18.9479,VALID,118,VALID,0.84654,
2004-02-09, 02:20:00,VALID,919.413,VALID,0,VALID,93.5926,VALID,0.0169808,VALID,18.9516,VALID,100,VALID,0.944196,
2004-02-09, 02:21:00,VALID,919.4,VALID,0,VALID,93.7516,VALID,0.0169808,VALID,18.938,VALID,116,VALID,0.853561,
2004-02-09, 02:22:00,VALID,919.38,VALID,0,VALID,93.6308,VALID,0.0339617,VALID,18.9643,VALID,129,VALID,0.763081,
2004-02-09, 02:23:01,VALID,919.386,VALID,0,VALID,93.5456,VALID,0,VALID,18.9583,VALID,85,VALID,0.724085,
2004-02-09, 02:24:00,VALID,919.373,VALID,0,VALID,93.7071,VALID,0,VALID,18.9647,VALID,69,VALID,0.735742,
2004-02-09, 02:25:00,VALID,919.369,VALID,0,VALID,93.6766,VALID,0,VALID,18.9806,VALID,68,VALID,1.04724,
2004-02-09, 02:26:01,VALID,919.351,VALID,0,VALID,93.4668,VALID,0.0169808,VALID,19.0224,VALID,69,VALID,1.14379,
2004-02-09, 02:27:01,VALID,919.34,VALID,0,VALID,93.1552,VALID,0,VALID,19.0904,VALID,82,VALID,1.15859,
2004-02-09, 02:28:01,VALID,919.325,VALID,0,VALID,92.8411,VALID,0.0339617,VALID,19.1483,VALID,93,VALID,0.807355,
2004-02-09, 02:29:01,VALID,919.292,VALID,0,VALID,92.7458,VALID,-0.101885,VALID,19.2012,VALID,106,VALID,0.697222,
2004-02-09, 02:30:00,VALID,919.267,VALID,0,VALID,92.1939,VALID,-0.101885,VALID,19.2404,VALID,115,VALID,0.740854,
2004-02-09, 02:31:01,VALID,919.24,VALID,0,VALID,92.2218,VALID,-0.0849042,VALID,19.2369,VALID,99,VALID,0.784979,
2004-02-09, 02:32:00,VALID,919.239,VALID,0,VALID,92.3325,VALID,-0.0849042,VALID,19.2501,VALID,54,VALID,0.983041,
2004-02-09, 02:33:00,VALID,919.226,VALID,0,VALID,92.2803,VALID,-0.0679233,VALID,19.2558,VALID,61,VALID,1.07347,
2004-02-09, 02:34:00,VALID,919.207,VALID,0,VALID,92.1901,VALID,-0.101885,VALID,19.2729,VALID,66,VALID,0.789971,
2004-02-09, 02:35:01,VALID,919.206,VALID,0,VALID,91.9993,VALID,-0.118866,VALID,19.2498,VALID,54,VALID,0.775391,
2004-02-09, 02:36:00,VALID,919.205,VALID,0,VALID,91.8734,VALID,-0.101885,VALID,19.2344,VALID,46,VALID,0.705611,
2004-02-09, 02:37:01,VALID,919.202,VALID,0,VALID,91.6979,VALID,-0.118866,VALID,19.1309,VALID,50,VALID,0.872024,
2004-02-09, 02:38:01,VALID,919.194,VALID,0,VALID,92.9301,VALID,-0.0849042,VALID,19.066,VALID,62,VALID,1.02001,
2004-02-09, 02:39:00,VALID,919.191,VALID,0,VALID,93.3383,VALID,-0.101885,VALID,19.0526,VALID,51,VALID,0.907422,
2004-02-09, 02:40:00,VALID,919.182,VALID,0,VALID,93.3523,VALID,-0.101885,VALID,19.0628,VALID,63,VALID,0.989025,
2004-02-09, 02:41:00,VALID,919.177,VALID,0,VALID,92.8437,VALID,-0.101885,VALID,19.0432,VALID,57,VALID,0.859933,
2004-02-09, 02:42:01,VALID,919.166,VALID,0,VALID,93.0624,VALID,-0.101885,VALID,18.9987,VALID,48,VALID,0.903646,
2004-02-09, 02:43:00,VALID,919.172,VALID,0,VALID,93.0039,VALID,-0.0849042,VALID,18.9364,VALID,35,VALID,0.78468,
2004-02-09, 02:44:00,VALID,919.177,VALID,0,VALID,93.7948,VALID,-0.0679233,VALID,18.8875,VALID,35,VALID,0.662016,
2004-02-09, 02:45:01,VALID,919.196,VALID,0,VALID,93.9474,VALID,-0.101885,VALID,18.8658,VALID,34,VALID,0.553445,
2004-02-09, 02:46:00,VALID,919.2,VALID,0,VALID,94.2971,VALID,-0.0849042,VALID,18.8561,VALID,31,VALID,0.647711,
2004-02-09, 02:47:00,VALID,919.196,VALID,0,VALID,94.4217,VALID,-0.101885,VALID,18.8561,VALID,37,VALID,0.578125,
2004-02-09, 02:48:00,VALID,919.197,VALID,0,VALID,94.2844,VALID,-0.0849042,VALID,18.8303,VALID,30,VALID,0.532158,
2004-02-09, 02:49:00,VALID,919.199,VALID,0,VALID,94.512,VALID,-0.101885,VALID,18.8077,VALID,30,VALID,0.447218,
2004-02-09, 02:50:01,VALID,919.205,VALID,0,VALID,94.6862,VALID,-0.0849042,VALID,18.7946,VALID,35,VALID,0.44931,
2004-02-09, 02:51:00,VALID,919.199,VALID,0,VALID,94.8464,VALID,-0.0679233,VALID,18.7814,VALID,55,VALID,0.389898,
2004-02-09, 02:52:01,VALID,919.188,VALID,0,VALID,94.8261,VALID,-0.0849042,VALID,18.7846,VALID,87,VALID,0.238653,
2004-02-09, 02:53:00,VALID,919.184,VALID,0,VALID,94.5324,VALID,-0.0849042,VALID,18.7754,VALID,89,VALID,0.259411,
2004-02-09, 02:54:00,VALID,919.159,VALID,0,VALID,94.3187,VALID,-0.0679233,VALID,18.733,VALID,89,VALID,0.0828887,
2004-02-09, 02:55:01,VALID,919.144,VALID,0,VALID,94.5209,VALID,-0.0509425,VALID,18.7037,VALID,94,VALID,0.505996,
2004-02-09, 02:56:00,VALID,919.142,VALID,0,VALID,94.1916,VALID,-0.101885,VALID,18.656,VALID,111,VALID,0.443677,
2004-02-09, 02:57:00,VALID,919.166,VALID,0,VALID,94.0072,VALID,-0.0849042,VALID,18.5554,VALID,129,VALID,0.588356,
2004-02-09, 02:58:01,VALID,919.19,VALID,0,VALID,94.1051,VALID,-0.0339617,VALID,18.4558,VALID,152,VALID,0.573879,
2004-02-09, 02:59:01,VALID,919.208,VALID,0,VALID,94.8312,VALID,0,VALID,18.3767,VALID,155,VALID,0.673692,
2004-02-09, 03:00:00,VALID,919.225,VALID,0,VALID,95.9222,VALID,0.0169808,VALID,18.3543,VALID,148,VALID,0.65298,
2004-02-09, 03:01:00,VALID,919.239,VALID,0,VALID,96.3953,VALID,0.0169808,VALID,18.3871,VALID,150,VALID,0.625191,
2004-02-09, 03:02:00,VALID,919.26,VALID,0,VALID,96.1066,VALID,0,VALID,18.3931,VALID,151,VALID,0.45625,
2004-02-09, 03:03:00,VALID,919.26,VALID,0,VALID,95.4924,VALID,0,VALID,18.3446,VALID,134,VALID,0.717262,
2004-02-09, 03:04:01,VALID,919.277,VALID,0,VALID,95.9502,VALID,0,VALID,18.2999,VALID,133,VALID,0.71224,
2004-02-09, 03:05:00,VALID,919.286,VALID,0,VALID,96.2948,VALID,0,VALID,18.2704,VALID,125,VALID,0.582933,
2004-02-09, 03:06:00,VALID,919.288,VALID,0,VALID,96.6776,VALID,0,VALID,18.2674,VALID,121,VALID,0.552507,
2004-02-09, 03:07:00,VALID,919.277,VALID,0,VALID,96.7157,VALID,-0.0169808,VALID,18.2679,VALID,121,VALID,0.518999,
2004-02-09, 03:08:00,VALID,919.287,VALID,0,VALID,96.7144,VALID,0,VALID,18.2552,VALID,121,VALID,0.768864,
2004-02-09, 03:09:01,VALID,919.255,VALID,0,VALID,96.8212,VALID,0,VALID,18.2356,VALID,128,VALID,1.00191,
2004-02-09, 03:10:00,VALID,919.208,VALID,0,VALID,97.1328,VALID,0,VALID,18.2291,VALID,145,VALID,0.95419,
2004-02-09, 03:11:01,VALID,919.177,VALID,0,VALID,97.4431,VALID,-0.0169808,VALID,18.2478,VALID,140,VALID,0.660061,
2004-02-09, 03:12:00,VALID,919.158,VALID,0,VALID,96.97,VALID,-0.0169808,VALID,18.2614,VALID,90,VALID,0.857013,
2004-02-09, 03:13:00,VALID,919.145,VALID,0,VALID,97.2854,VALID,-0.0169808,VALID,18.2711,VALID,86,VALID,0.892578,
2004-02-09, 03:14:00,VALID,919.145,VALID,0,VALID,97.6185,VALID,0.0169808,VALID,18.329,VALID,99,VALID,1.06117,
2004-02-09, 03:15:01,VALID,919.146,VALID,0,VALID,97.3515,VALID,0.0169808,VALID,18.4258,VALID,93,VALID,0.751367,
2004-02-09, 03:16:00,VALID,919.131,VALID,0,VALID,96.6598,VALID,0,VALID,18.4779,VALID,94,VALID,0.912791,
2004-02-09, 03:17:00,VALID,919.117,VALID,0,VALID,96.7399,VALID,0.0169808,VALID,18.5683,VALID,110,VALID,0.850038,
2004-02-09, 03:18:00,VALID,919.089,VALID,0,VALID,96.2363,VALID,0.0169808,VALID,18.6456,VALID,105,VALID,0.790039,
2004-02-09, 03:19:00,VALID,919.07,VALID,0,VALID,95.2851,VALID,0,VALID,18.6587,VALID,80,VALID,0.658203,
2004-02-09, 03:20:00,VALID,919.061,VALID,0,VALID,95.1771,VALID,0,VALID,18.662,VALID,90,VALID,0.727163,
2004-02-09, 03:21:00,VALID,919.061,VALID,0,VALID,95.4886,VALID,0.0169808,VALID,18.6719,VALID,107,VALID,0.68006,
2004-02-09, 03:22:00,VALID,919.054,VALID,0,VALID,95.6895,VALID,-0.0169808,VALID,18.6679,VALID,102,VALID,0.888445,
2004-02-09, 03:23:00,VALID,919.066,VALID,0,VALID,95.6005,VALID,0,VALID,18.6908,VALID,118,VALID,0.749092,
2004-02-09, 03:24:01,VALID,919.08,VALID,0,VALID,95.4441,VALID,0.0169808,VALID,18.7203,VALID,118,VALID,0.453526,
2004-02-09, 03:25:00,VALID,919.099,VALID,0,VALID,95.1682,VALID,0,VALID,18.7201,VALID,118,VALID,0.446911,
2004-02-09, 03:26:01,VALID,919.109,VALID,0,VALID,95.3106,VALID,-0.0169808,VALID,18.7101,VALID,119,VALID,0.614826,
2004-02-09, 03:27:01,VALID,919.093,VALID,0,VALID,95.3157,VALID,0,VALID,18.7097,VALID,119,VALID,0.94112,
2004-02-09, 03:28:01,VALID,919.071,VALID,0,VALID,95.3856,VALID,-0.0169808,VALID,18.7171,VALID,119,VALID,0.965843,
2004-02-09, 03:29:00,VALID,919.051,VALID,0,VALID,95.5331,VALID,-0.0169808,VALID,18.7138,VALID,119,VALID,0.90718,
2004-02-09, 03:30:01,VALID,919.045,VALID,0,VALID,95.4555,VALID,0,VALID,18.6905,VALID,119,VALID,0.932413,
2004-02-09, 03:31:01,VALID,919.027,VALID,0,VALID,95.4594,VALID,0.0169808,VALID,18.6908,VALID,114,VALID,0.923363,
2004-02-09, 03:32:01,VALID,919.013,VALID,0,VALID,95.514,VALID,0,VALID,18.6776,VALID,114,VALID,0.653245,
2004-02-09, 03:33:01,VALID,918.994,VALID,0,VALID,95.5293,VALID,0.0339617,VALID,18.6679,VALID,114,VALID,0.461957,
2004-02-09, 03:34:01,VALID,918.976,VALID,0,VALID,95.5242,VALID,0,VALID,18.6746,VALID,114,VALID,0.482812,
2004-02-09, 03:35:00,VALID,918.941,VALID,0,VALID,95.2686,VALID,0,VALID,18.6354,VALID,114,VALID,0.46875,
2004-02-09, 03:36:00,VALID,918.901,VALID,0,VALID,95.055,VALID,-0.0169808,VALID,18.5808,VALID,114,VALID,0.514482,
2004-02-09, 03:37:01,VALID,918.874,VALID,0,VALID,95.0931,VALID,0,VALID,18.5162,VALID,114,VALID,0.636719,